Location: Unspecified
(48.8656°N, 0.0000°E)
Time: 14:35:34
(UTC+00:00)

Vanguard 1 Rocket - Pass Details

Date: 26 June 2019
Orbit: 651 x 4225 km, 34.3° (Epoch: 16 July)

Event Time Altitude Azimuth Distance (km) Brightness Sun altitude
Rises 20:03:04 0° 266° (W) 6,643 12.7 -0.2°
Reaches altitude 10° 20:08:56 10° 258° (WSW) 4,966 11.8 -1.0°
Maximum altitude 20:18:47 28° 207° (SSW) 2,598 9.6 -2.2°
Drops below altitude 10° 20:24:51 10° 151° (SSE) 2,959 9.4 -3.0°
Enters shadow 20:26:34 - 141° (SE) 3,383 9.7 -3.2°
Sets 20:27:23 0° 138° (SE) 3,618 - -3.3°
